User: anonymous   Login
Location: Caltech
(34.1382°N, 118.1253°W)
Time: 14:42:29
(UTC-08:00)
Language:

Iridium 70 - Orbit

View from above orbital plane
View from above orbital plane
View from above satellite
View from above satellite

Ground track
Ground track

The orbit data is extracted from the following two-line orbital elements,

1 25342U 98032A   14356.26685934  .00000816  00000-0  28425-3 0   967
2 25342 086.3971 243.6775 0002220 100.7574 038.7322 14.34213648868964
Epoch (UTC): 22 December 2014 06:24:16
Eccentricity: 0.0002220
inclination: 86.3971°
perigee height: 776 km
apogee height: 779 km
right ascension of ascending node: 243.6775°
argument of perigee: 100.7574°
revolutions per day: 14.34213648
mean anomaly at epoch: 38.7322°
orbit number at epoch: 86896

The dashed part of the orbit path shows where the satellite is in the earth's shadow,  

DLR